Marshfield, WI

12:51 PM CDT on June 26, 2017 (GMT -0500)
Marshfield Municipal

Weather History for KMFI - May, 2013

Change the Weather History Date:

Thursday, May 9, 2013

  Actual Average Record
Temperature  
Mean Temperature 53 °F -  
Max Temperature 62 °F 67 °F 91 °F (1934)
Min Temperature 42 °F 39 °F 19 °F (1966)
Degree Days  
Heating Degree Days 12    
Growing Degree Days 3 (Base 50)    
Moisture  
Dew Point 49 °F    
Average Humidity 87    
Maximum Humidity 100    
Minimum Humidity 53    
Precipitation  
Precipitation 0.40 in - - ()
Sea Level Pressure  
Sea Level Pressure 29.97 in    
Wind  
Wind Speed 8 mph (NE)    
Max Wind Speed 20 mph    
Max Gust Speed 26 mph    
Visibility 6 miles    
Events Rain    
Averages and records for this station are not official NWS values.
T = Trace of Precipitation, MM = Missing Value Source: NWS Daily Summary

Daily Weather History Graph

Daily Weather History Graph

Search for Another Location

Airport or City:

Trip Planner

Search our weather history database for the weather conditions in past years. The results will help you decide how hot, cold, wet, or windy it might be!

Date:

Astronomy

May. 09, 2013 Rise Set
Actual Time 5:39 AM CDT 8:15 PM CDT
Civil Twilight 5:06 AM CDT 8:48 PM CDT
Nautical Twilight 4:24 AM CDT 9:30 PM CDT
Astronomical Twilight 3:37 AM CDT 10:18 PM CDT
Moon 5:25 AM CDT (5/9) 8:10 PM CDT (5/9)
Length of Visible Light 15h 42m
Length of Day
14h 35m
Waning Crescent, 0% of the Moon is Illuminated
May 9
Waning Crescent
May 9
New
May 17
First Quarter
May 24
Full
May 31
Last Quarter

Hourly Weather History & Observations

Time (CDT) Temp. Windchill Dew Point Humidity Pressure Visibility Wind Dir Wind Speed Gust Speed Precip Events Conditions
12:54 AM 62.1 °F - 48.9 °F 62% 29.94 in 10.0 mi WSW 4.6 mph - N/A   Clear
1:54 AM 61.0 °F - 45.0 °F 56% 29.94 in 10.0 mi NNE 4.6 mph - N/A   Clear
2:54 AM 60.1 °F - 43.0 °F 53% 29.94 in 10.0 mi NE 4.6 mph - N/A   Mostly Cloudy
3:54 AM 55.9 °F - 46.0 °F 69% 29.94 in 10.0 mi WNW 5.8 mph - N/A   Mostly Cloudy
4:54 AM 55.9 °F - 46.0 °F 69% 29.95 in 10.0 mi NW 5.8 mph - N/A   Mostly Cloudy
5:54 AM 55.0 °F - 48.0 °F 77% 29.95 in 9.0 mi North 3.5 mph - 0.00 in Rain Light Rain
6:54 AM 57.9 °F - 45.0 °F 62% 29.94 in 10.0 mi NNE 5.8 mph - 0.00 in   Overcast
7:54 AM 57.9 °F - 44.1 °F 60% 29.95 in 10.0 mi NE 5.8 mph - N/A   Overcast
8:54 AM 55.9 °F - 46.9 °F 72% 29.97 in 6.0 mi ENE 4.6 mph - 0.00 in Rain Rain
9:43 AM 53.6 °F - 51.8 °F 94% 29.98 in 2.5 mi Calm Calm - 0.03 in Rain Light Rain
9:54 AM 55.0 °F - 52.0 °F 89% 29.98 in 4.0 mi Calm Calm - 0.04 in Rain Rain
10:30 AM 53.6 °F - 51.8 °F 94% 29.99 in 2.5 mi North 3.5 mph - 0.07 in Rain Rain
10:54 AM 53.1 °F - 52.0 °F 96% 30.00 in 2.5 mi ENE 8.1 mph - 0.14 in Rain Rain
11:01 AM 53.6 °F - 51.8 °F 94% 29.99 in 3.0 mi NE 8.1 mph - 0.02 in Rain Rain
12:38 PM 53.6 °F - 51.8 °F 94% 29.98 in 2.5 mi NNE 11.5 mph - 0.02 in Rain Light Rain
12:46 PM 53.6 °F - 51.8 °F 94% 29.98 in 3.0 mi NNE 10.4 mph 17.3 mph 0.02 in Rain Light Rain
12:54 PM 53.1 °F - 52.0 °F 96% 29.98 in 4.0 mi NNE 11.5 mph - 0.02 in Rain Light Rain
1:54 PM 53.1 °F - 52.0 °F 96% 29.99 in 4.0 mi NE 6.9 mph - 0.02 in Rain Rain
2:36 PM 53.6 °F - 51.8 °F 94% 29.98 in 2.5 mi NE 11.5 mph - 0.04 in Rain Light Rain
2:45 PM 53.6 °F - 51.8 °F 94% 29.97 in 3.0 mi NE 11.5 mph - 0.05 in Rain Light Rain
2:54 PM 53.1 °F - 52.0 °F 96% 29.98 in 4.0 mi NE 9.2 mph - 0.05 in Rain Light Rain
3:47 PM 53.6 °F - 51.8 °F 94% 29.97 in 4.0 mi NE 10.4 mph - 0.00 in Rain Light Rain
3:54 PM 53.1 °F - 52.0 °F 96% 29.98 in 4.0 mi NE 11.5 mph - 0.01 in Rain Light Rain
4:54 PM 54.0 °F - 52.0 °F 93% 29.97 in 4.0 mi NE 13.8 mph - 0.01 in Rain Light Rain
5:00 PM 53.6 °F - 51.8 °F 94% 29.96 in 4.0 mi NE 15.0 mph - 0.01 in Rain Light Rain
5:14 PM 53.6 °F - 51.8 °F 94% 29.95 in 5.0 mi NE 18.4 mph 24.2 mph 0.01 in Rain Light Rain
5:23 PM 53.6 °F - 51.8 °F 94% 29.95 in 6.0 mi NE 17.3 mph - 0.02 in Rain Light Rain
5:30 PM 53.6 °F - 51.8 °F 94% 29.95 in 7.0 mi NE 15.0 mph 24.2 mph 0.02 in Rain Light Rain
5:45 PM 53.6 °F - 51.8 °F 94% 29.96 in 5.0 mi NE 11.5 mph 20.7 mph 0.02 in Rain Light Rain
5:54 PM 53.1 °F - 51.1 °F 93% 29.97 in 5.0 mi NE 12.7 mph 23.0 mph 0.02 in Rain Light Rain
6:31 PM 51.8 °F - 50.0 °F 94% 29.96 in 4.0 mi NE 18.4 mph 25.3 mph 0.02 in Rain Rain
6:38 PM 51.8 °F - 50.0 °F 94% 29.96 in 4.0 mi NE 18.4 mph - 0.03 in Rain Rain
6:54 PM 51.1 °F - 50.0 °F 96% 29.97 in 3.0 mi NE 16.1 mph 26.5 mph 0.06 in Rain Rain
7:00 PM 51.8 °F - 50.0 °F 94% 29.96 in 4.0 mi NE 16.1 mph 24.2 mph 0.01 in Rain Light Rain
7:13 PM 51.8 °F - 50.0 °F 94% 29.97 in 5.0 mi NE 13.8 mph 19.6 mph 0.01 in Rain Light Rain
7:54 PM 50.0 °F - 48.0 °F 93% 29.99 in 4.0 mi NE 19.6 mph 26.5 mph 0.03 in Rain Light Rain
8:15 PM 48.2 °F - 48.2 °F 100% 29.98 in 10.0 mi NE 15.0 mph 26.5 mph 0.00 in Rain Light Rain
8:54 PM 48.0 °F - 45.0 °F 89% 30.01 in 10.0 mi NE 15.0 mph 23.0 mph 0.00 in Rain Light Rain
9:39 PM 44.6 °F 37.2 °F 42.8 °F 93% 30.01 in 8.0 mi NE 17.3 mph 24.2 mph 0.00 in Rain Light Rain
9:54 PM 44.1 °F 36.8 °F 41.0 °F 89% 30.03 in 9.0 mi NE 16.1 mph 26.5 mph 0.00 in Rain Light Rain
10:54 PM 42.1 °F 35.7 °F 39.9 °F 92% 30.04 in 10.0 mi NE 11.5 mph - 0.00 in Rain Light Rain